FW8563 Weather Reports


Display with metric or nautical units.
time (UTC)temp
F
wind
direction
speed
MPH
gust
MPH
rain 1hr
in
rain 24hr
in
rain mn
in
humidity
%
barometer
mb
20260508132613 58 359 1.0 5.0 0.00 0.36 0.36 97 1015.3
20260508132107 58 25 1.0 7.0 0.00 0.36 0.36 97 1015.3
20260508131604 58 266 1.0 7.0 0.00 0.36 0.36 97 1015.3
20260508131057 58 338 0.0 3.0 0.00 0.36 0.36 97 1015.2
20260508130557 58 321 0.0 3.0 0.09 0.36 0.36 97 1015.3
20260508130057 58 259 0.0 2.0 0.15 0.36 0.36 97 1015.3
20260508125056 57 316 0.0 3.0 0.20 0.36 0.36 97 1015.3
20260508124556 57 323 0.0 3.0 0.20 0.36 0.36 97 1015.4
20260508124053 57 281 0.0 1.0 0.27 0.36 0.36 97 1015.3
20260508123555 57 264 0.0 2.0 0.32 0.36 0.36 97 1015.4
20260508122553 56 285 1.0 3.0 0.36 0.36 0.36 96 1015.2
20260508122048 56 278 0.0 3.0 0.36 0.36 0.36 96 1015.2
20260508121049 56 231 1.0 6.0 0.36 0.36 0.36 96 1015.1
20260508120546 57 330 1.0 5.0 0.28 0.28 0.28 96 1015.3
20260508120048 57 347 2.0 5.0 0.21 0.21 0.21 96 1015.3
20260508115546 57 65 0.0 3.0 0.17 0.17 0.17 95 1015.3
20260508115048 58 90 0.0 1.0 0.17 0.17 0.17 95 1015.1
20260508114547 58 108 1.0 6.0 0.16 0.16 0.16 94 1015.2
20260508114044 59 94 4.0 10.0 0.09 0.09 0.10 92 1015.1
20260508113044 63 96 2.0 5.0 0.01 0.01 0.01 78 1015.1
20260508112542 65 144 1.0 5.0 0.00 0.00 0.00 74 1015.0
20260508112042 65 141 1.0 5.0 0.00 0.00 0.00 72 1014.9
20260508111542 65 200 1.0 5.0 0.00 0.00 0.00 70 1014.8
20260508111044 66 214 2.0 5.0 0.00 0.00 0.00 70 1014.9
20260508110543 66 217 2.0 4.0 0.00 0.00 0.00 70 1014.8
20260508110041 66 206 1.0 4.0 0.00 0.00 0.00 69 1014.8
20260508105541 67 167 1.0 4.0 0.00 0.00 0.00 69 1014.9
20260508105035 66 233 1.0 4.0 0.00 0.00 0.00 70 1014.9
20260508104535 66 134 1.0 4.0 0.00 0.00 0.00 70 1014.9
20260508104036 66 227 1.0 3.0 0.00 0.00 0.00 70 1014.9
20260508103535 66 246 1.0 4.0 0.00 0.00 0.00 69 1014.9
20260508103033 66 83 1.0 6.0 0.00 0.00 0.00 69 1014.9
20260508102534 66 149 2.0 6.0 0.00 0.00 0.00 68 1015.0
20260508101533 66 239 2.0 5.0 0.00 0.00 0.00 68 1015.0
20260508101035 66 221 1.0 6.0 0.00 0.00 0.00 70 1015.0
20260508100533 66 230 1.0 6.0 0.00 0.00 0.00 70 1014.9
20260508100033 66 255 1.0 4.0 0.00 0.00 0.00 68 1014.9
20260508095535 66 122 0.0 2.0 0.00 0.00 0.00 68 1014.9
20260508095033 65 205 0.0 2.0 0.00 0.00 0.00 72 1014.9
20260508094533 65 250 1.0 3.0 0.00 0.00 0.00 72 1014.9
20260508094034 65 281 1.0 3.0 0.00 0.00 0.00 73 1014.8
20260508093531 64 297 1.0 5.0 0.00 0.00 0.00 74 1014.9
20260508093031 64 319 1.0 5.0 0.00 0.00 0.00 73 1014.8
20260508092529 64 55 1.0 6.0 0.00 0.00 0.00 73 1014.8
20260508092030 64 72 1.0 6.0 0.00 0.00 0.00 73 1014.7
20260508091526 64 103 1.0 6.0 0.00 0.00 0.00 74 1014.7
20260508091027 64 34 2.0 6.0 0.00 0.00 0.00 74 1014.7
20260508090526 63 1 2.0 6.0 0.00 0.00 0.00 74 1014.7
20260508085528 63 27 1.0 5.0 0.00 0.00 0.00 74 1014.6
20260508085029 63 86 2.0 7.0 0.00 0.00 0.00 75 1014.5
20260508084029 63 56 2.0 8.0 0.00 0.00 0.00 75 1014.5
20260508083530 63 18 3.0 10.0 0.00 0.00 0.00 75 1014.4
20260508083025 63 35 4.0 10.0 0.00 0.00 0.00 76 1014.4
20260508082526 63 333 3.0 10.0 0.00 0.01 0.00 75 1014.4
20260508082024 63 18 3.0 7.0 0.00 0.01 0.00 76 1014.1
20260508081523 63 40 2.0 8.0 0.00 0.01 0.00 77 1014.2
20260508081024 62 60 3.0 8.0 0.00 0.01 0.00 76 1014.1
20260508080526 62 350 4.0 10.0 0.00 0.01 0.00 77 1014.1
20260508080023 62 37 4.0 10.0 0.00 0.01 0.00 77 1014.0
20260508075522 62 35 4.0 9.0 0.00 0.01 0.00 78 1014.0
20260508075021 62 25 4.0 9.0 0.00 0.01 0.00 77 1014.0
20260508074518 62 352 4.0 9.0 0.00 0.01 0.00 77 1013.9
20260508074019 62 4 4.0 8.0 0.00 0.01 0.00 77 1013.9
20260508073519 62 1 4.0 8.0 0.00 0.01 0.00 76 1013.9
20260508073018 62 13 4.0 10.0 0.00 0.01 0.00 77 1013.8
20260508072517 62 352 3.0 10.0 0.00 0.01 0.00 76 1013.7
20260508072017 62 9 3.0 6.0 0.00 0.01 0.00 77 1013.7
20260508071517 61 32 3.0 7.0 0.00 0.01 0.00 78 1013.7
20260508070517 61 23 3.0 8.0 0.00 0.01 0.00 78 1013.6
20260508070015 60 3 4.0 9.0 0.00 0.01 0.00 78 1013.6
20260508065516 60 41 4.0 9.0 0.00 0.01 0.00 79 1013.6
20260508064513 60 13 3.0 9.0 0.00 0.01 0.00 81 1013.5
20260508064014 59 11 3.0 8.0 0.00 0.01 0.00 81 1013.4
20260508063509 59 320 4.0 9.0 0.00 0.01 0.00 81 1013.4
20260508063008 58 44 6.0 11.0 0.00 0.01 0.00 81 1013.2
20260508062508 58 30 6.0 11.0 0.00 0.01 0.00 81 1013.3
20260508062011 58 27 6.0 12.0 0.00 0.01 0.00 82 1013.1
20260508061011 58 4 5.0 10.0 0.00 0.01 0.00 82 1013.2
20260508060510 57 25 5.0 10.0 0.00 0.01 0.00 82 1013.3
20260508060009 57 6 5.0 10.0 0.00 0.01 0.00 82 1013.3
20260508055008 57 13 5.0 10.0 0.00 0.01 0.00 82 1013.2
20260508054005 57 23 7.0 14.0 0.00 0.01 0.00 83 1013.0
20260508053504 57 16 7.0 12.0 0.00 0.01 0.00 83 1013.0
20260508053006 56 7 6.0 11.0 0.00 0.01 0.00 83 1013.0
20260508052504 56 11 5.0 11.0 0.00 0.01 0.00 84 1012.9
20260508052005 56 5 5.0 12.0 0.00 0.01 0.00 84 1013.0
20260508051459 56 15 5.0 12.0 0.00 0.01 0.00 84 1012.9
20260508050958 56 352 5.0 9.0 0.00 0.01 0.00 84 1012.9
20260508050501 56 352 6.0 11.0 0.00 0.01 0.00 84 1012.9
20260508045958 56 13 6.0 11.0 0.00 0.01 0.00 84 1012.7
20260508045002 56 9 7.0 12.0 0.00 0.01 0.00 84 1012.6
20260508044458 56 27 7.0 12.0 0.00 0.01 0.00 84 1012.5
20260508044001 56 18 7.0 11.0 0.00 0.01 0.00 84 1012.6
20260508043500 56 26 7.0 11.0 0.00 0.01 0.00 83 1012.6
20260508042959 56 23 7.0 11.0 0.00 0.01 0.00 83 1012.7
20260508042459 55 349 6.0 11.0 0.00 0.01 0.00 84 1012.7
20260508041956 55 340 5.0 10.0 0.00 0.01 0.00 84 1012.7
20260508041450 55 352 3.0 10.0 0.00 0.01 0.00 84 1012.6
20260508040950 54 323 2.0 7.0 0.00 0.01 0.00 84 1012.7
20260508040450 54 331 1.0 5.0 0.00 0.01 0.00 85 1012.7
20260508035950 54 289 2.0 7.0 0.00 0.01 0.00 85 1012.6
20260508035450 54 311 2.0 7.0 0.00 0.01 0.00 85 1012.5
20260508034947 54 340 2.0 6.0 0.00 0.01 0.00 84 1012.5
20260508034445 55 340 3.0 6.0 0.00 0.01 0.00 84 1012.2
20260508033445 55 16 3.0 8.0 0.00 0.01 0.00 83 1012.2
20260508032944 56 329 4.0 10.0 0.00 0.01 0.00 83 1012.2
20260508032444 56 18 5.0 11.0 0.00 0.01 0.00 82 1012.4
20260508031945 56 336 6.0 11.0 0.00 0.01 0.00 82 1012.4
20260508030944 56 337 7.0 12.0 0.00 0.01 0.00 82 1012.2
20260508030443 56 356 6.0 12.0 0.00 0.01 0.00 82 1012.4
20260508025937 56 4 6.0 11.0 0.00 0.01 0.00 82 1012.4
20260508025431 56 0 6.0 10.0 0.00 0.01 0.00 82 1012.4
20260508024932 56 358 6.0 10.0 0.00 0.01 0.00 82 1012.5
20260508024432 56 42 6.0 12.0 0.00 0.01 0.00 82 1012.5
20260508023932 56 15 6.0 12.0 0.00 0.01 0.00 82 1012.5
20260508022932 56 16 7.0 12.0 0.00 0.01 0.00 82 1012.6
20260508021932 56 17 8.0 13.0 0.00 0.01 0.00 82 1012.5
20260508021432 56 4 8.0 17.0 0.00 0.01 0.00 82 1012.5
20260508020933 56 13 9.0 17.0 0.00 0.01 0.00 81 1012.6
20260508020434 56 13 8.0 16.0 0.00 0.01 0.00 81 1012.6
20260508015933 56 6 7.0 12.0 0.00 0.01 0.00 81 1012.7
20260508015434 56 12 8.0 14.0 0.00 0.01 0.00 81 1012.7
20260508014932 56 15 7.0 14.0 0.00 0.01 0.00 80 1012.8
20260508014430 56 351 6.0 12.0 0.00 0.01 0.00 80 1012.9
20260508013932 56 9 6.0 11.0 0.00 0.01 0.00 80 1012.9
20260508012927 57 2 7.0 13.0 0.00 0.01 0.00 79 1013.2
20260508012428 57 22 6.0 13.0 0.00 0.01 0.00 78 1013.2
20260508011927 57 340 6.0 13.0 0.00 0.01 0.00 78 1013.1
20260508011427 57 28 6.0 12.0 0.00 0.01 0.00 79 1013.2
20260508010925 56 346 6.0 12.0 0.00 0.01 0.00 79 1013.1
20260508005929 56 15 5.0 9.0 0.00 0.01 0.00 79 1013.3
20260508004925 56 354 4.0 9.0 0.00 0.01 0.00 79 1013.3
20260508003926 56 340 3.0 7.0 0.00 0.01 0.00 80 1013.4
20260508003424 56 31 3.0 5.0 0.00 0.01 0.00 80 1013.4
20260508002924 56 27 3.0 7.0 0.00 0.01 0.00 80 1013.5
20260508002426 56 356 3.0 7.0 0.00 0.01 0.00 79 1013.5
20260508001924 56 12 3.0 6.0 0.00 0.02 0.00 79 1013.6
20260508001427 56 1 3.0 6.0 0.00 0.03 0.00 79 1013.5
20260508000928 56 355 3.0 6.0 0.00 0.04 0.00 79 1013.6
20260508000427 56 335 3.0 8.0 0.00 0.06 0.00 79 1013.7
20260507235926 56 342 3.0 8.0 0.00 0.06 0.00 79 1013.7
20260507235426 56 335 3.0 7.0 0.00 0.08 0.00 79 1013.8
20260507234923 56 349 3.0 7.0 0.00 0.09 0.00 79 1013.8
20260507234421 56 2 3.0 7.0 0.00 0.10 0.00 79 1013.8
20260507233920 56 18 4.0 8.0 0.00 0.11 0.00 80 1014.0
20260507233420 56 6 4.0 9.0 0.00 0.11 0.00 80 1014.0
20260507232919 56 299 3.0 9.0 0.00 0.12 0.00 81 1014.0
20260507232414 56 349 3.0 6.0 0.00 0.12 0.00 81 1014.1
20260507231914 56 332 3.0 6.0 0.00 0.12 0.00 80 1014.2
20260507230416 57 345 2.0 5.0 0.00 0.13 0.00 79 1014.5
20260507225914 57 333 2.0 6.0 0.00 0.14 0.00 79 1014.5
20260507225413 57 12 3.0 6.0 0.00 0.14 0.00 79 1014.6
20260507224417 57 322 3.0 6.0 0.00 0.14 0.00 79 1014.7
20260507223911 57 335 3.0 7.0 0.00 0.14 0.00 78 1014.9
20260507222913 57 359 2.0 7.0 0.00 0.14 0.00 80 1014.8
20260507222410 57 358 2.0 5.0 0.00 0.15 0.00 80 1014.9
20260507221404 57 352 3.0 6.0 0.00 0.15 0.00 80 1015.2
20260507220904 57 320 2.0 6.0 0.00 0.15 0.00 80 1015.1
20260507220401 58 342 2.0 5.0 0.00 0.15 0.00 78 1015.1
20260507215901 58 349 2.0 4.0 0.00 0.15 0.15 77 1015.0
20260507215402 58 349 2.0 6.0 0.00 0.15 0.15 77 1015.0
20260507214902 58 349 3.0 6.0 0.00 0.15 0.15 76 1015.0
20260507214402 58 5 4.0 6.0 0.00 0.15 0.15 77 1014.9
20260507213902 58 347 3.0 5.0 0.00 0.15 0.15 77 1014.9
20260507213405 58 0 2.0 5.0 0.00 0.15 0.15 77 1014.9
20260507212905 58 15 2.0 4.0 0.00 0.15 0.15 77 1014.9
20260507212402 58 6 2.0 3.0 0.00 0.15 0.15 78 1014.9
20260507211906 58 341 1.0 3.0 0.00 0.15 0.15 78 1014.9
20260507211404 58 345 1.0 3.0 0.00 0.15 0.15 78 1015.0
20260507210401 58 344 2.0 3.0 0.00 0.15 0.15 77 1015.0
20260507205856 58 338 1.0 3.0 0.00 0.15 0.15 77 1014.9
20260507205352 58 347 1.0 3.0 0.00 0.15 0.15 78 1015.0
20260507204852 58 350 1.0 3.0 0.00 0.15 0.15 78 1015.0
20260507204352 59 346 1.0 3.0 0.00 0.15 0.15 77 1015.0
20260507203851 59 6 1.0 4.0 0.00 0.15 0.15 76 1015.0
20260507203351 60 7 2.0 5.0 0.00 0.15 0.15 75 1015.0
20260507202849 60 7 3.0 6.0 0.00 0.15 0.15 75 1015.0
20260507202349 60 13 3.0 6.0 0.00 0.15 0.15 75 1015.0
20260507201849 60 352 3.0 6.0 0.00 0.15 0.15 75 1015.0
20260507201351 60 15 3.0 6.0 0.00 0.15 0.15 75 1015.0
20260507200849 60 27 2.0 6.0 0.00 0.15 0.15 75 1014.9
20260507200347 60 341 2.0 6.0 0.00 0.15 0.15 75 1014.9
20260507195849 60 25 2.0 4.0 0.00 0.15 0.15 75 1014.9
20260507195348 60 359 2.0 4.0 0.00 0.15 0.15 76 1014.9
20260507194841 60 17 1.0 3.0 0.00 0.15 0.15 76 1014.8
20260507194344 60 12 1.0 4.0 0.00 0.15 0.15 75 1014.9
20260507193844 60 346 1.0 4.0 0.00 0.15 0.15 75 1014.9
20260507193341 60 343 1.0 3.0 0.00 0.15 0.15 75 1014.7
20260507192844 61 22 1.0 3.0 0.00 0.15 0.15 74 1014.8
20260507192342 61 353 1.0 2.0 0.00 0.15 0.15 74 1014.6
20260507191842 61 1 0.0 2.0 0.00 0.15 0.15 74 1014.6
20260507191342 61 11 0.0 2.0 0.00 0.15 0.15 73 1014.7
20260507190841 61 8 0.0 0.0 0.00 0.15 0.15 73 1014.7
20260507185342 62 15 0.0 0.0 0.00 0.17 0.15 72 1014.8
20260507184343 62 4 0.0 0.0 0.00 0.17 0.15 70 1014.8
20260507183841 62 148 0.0 0.0 0.00 0.17 0.15 68 1014.8
20260507183343 62 148 0.0 0.0 0.00 0.17 0.15 70 1014.8
20260507182844 62 147 0.0 0.0 0.00 0.17 0.15 69 1014.7
20260507182343 63 148 0.0 0.0 0.00 0.17 0.15 71 1014.8
20260507181841 64 148 0.0 0.0 0.00 0.17 0.15 68 1014.8
20260507181342 65 148 0.0 0.0 0.00 0.17 0.15 67 1014.8
20260507180842 65 148 0.0 0.0 0.00 0.17 0.15 66 1014.8
20260507180337 66 148 0.0 0.0 0.00 0.17 0.15 64 1014.9
20260507175846 67 148 0.0 0.0 0.00 0.17 0.15 63 1014.8
20260507175339 67 148 0.0 0.0 0.00 0.17 0.15 63 1014.8
20260507174839 67 148 0.0 0.0 0.00 0.17 0.15 63 1014.8
20260507174337 67 145 0.0 0.0 0.00 0.17 0.15 62 1014.8
20260507173837 67 165 0.0 0.0 0.00 0.17 0.15 63 1014.8
20260507173337 67 207 0.0 0.0 0.00 0.17 0.15 62 1014.7
20260507172337 68 167 0.0 0.0 0.00 0.17 0.15 63 1014.7
20260507171837 67 147 0.0 0.0 0.00 0.17 0.15 63 1014.8
20260507170839 68 129 0.0 0.0 0.00 0.17 0.15 60 1014.6
20260507170339 69 148 0.0 0.0 0.00 0.17 0.15 59 1014.7
20260507165837 69 226 0.0 0.0 0.00 0.17 0.15 59 1014.7
20260507164835 68 207 0.0 2.0 0.00 0.17 0.15 59 1014.7
20260507164333 68 181 1.0 2.0 0.00 0.17 0.15 60 1014.6
20260507163830 68 135 0.0 2.0 0.00 0.17 0.15 57 1014.6
20260507163321 69 127 0.0 2.0 0.00 0.17 0.15 58 1014.6
20260507162319 69 202 0.0 3.0 0.00 0.17 0.15 57 1014.6
20260507161817 69 136 0.0 3.0 0.00 0.17 0.15 58 1014.6
20260507161320 69 253 0.0 3.0 0.00 0.17 0.15 58 1014.7
20260507160817 69 222 0.0 2.0 0.00 0.17 0.15 58 1014.7
20260507160315 69 213 0.0 2.0 0.00 0.17 0.15 58 1014.7
20260507155813 69 254 1.0 5.0 0.00 0.17 0.15 58 1014.5
20260507155313 68 215 1.0 5.0 0.00 0.17 0.15 59 1014.6
20260507154814 68 225 1.0 5.0 0.00 0.17 0.15 60 1014.7
20260507153817 68 224 2.0 6.0 0.00 0.17 0.15 59 1014.7
20260507153314 68 229 2.0 6.0 0.00 0.17 0.15 60 1014.7
20260507152813 68 206 2.0 6.0 0.00 0.17 0.15 60 1014.8
20260507152310 68 222 2.0 5.0 0.00 0.17 0.15 60 1014.8
20260507151805 68 153 2.0 5.0 0.00 0.17 0.15 59 1014.8
20260507151300 68 212 2.0 5.0 0.00 0.17 0.15 59 1014.8
20260507150756 68 143 2.0 6.0 0.00 0.17 0.15 60 1014.9
20260507150253 68 214 2.0 6.0 0.00 0.17 0.15 59 1014.8
20260507145753 69 147 1.0 5.0 0.00 0.17 0.15 59 1014.9
20260507145252 68 75 1.0 6.0 0.00 0.17 0.15 59 1014.9
20260507144751 69 160 2.0 6.0 0.00 0.17 0.15 60 1014.9
20260507143752 68 219 1.0 5.0 0.00 0.17 0.15 62 1014.9
20260507143249 67 159 2.0 6.0 0.00 0.17 0.15 62 1015.0
20260507142751 67 146 2.0 6.0 0.00 0.17 0.15 61 1015.1
20260507142250 67 82 2.0 6.0 0.00 0.17 0.15 63 1015.1
20260507141749 67 109 2.0 6.0 0.00 0.17 0.15 63 1015.1
20260507140748 67 212 2.0 6.0 0.00 0.17 0.15 65 1015.1
20260507140246 67 155 2.0 8.0 0.00 0.17 0.15 64 1015.3
20260507135743 67 242 2.0 8.0 0.00 0.17 0.15 65 1015.3
20260507135242 67 216 2.0 8.0 0.00 0.17 0.15 65 1015.4
20260507134744 67 135 3.0 9.0 0.00 0.17 0.15 66 1015.4
20260507134242 67 250 2.0 9.0 0.00 0.17 0.15 69 1015.5
20260507133743 67 189 2.0 5.0 0.00 0.17 0.15 66 1015.6
20260507133243 67 142 2.0 6.0 0.00 0.17 0.15 66 1015.8
20260507132741 67 190 2.0 6.0 0.00 0.17 0.15 67 1015.8